DW6494 Weather Reports


Display with metric or nautical units.
time (UTC)temp
F
wind
direction
speed
MPH
gust
MPH
rain 1hr
in
rain 24hr
in
rain mn
in
humidity
%
barometer
mb
20260510120530 50 92 5.0 5.0 0.00 0.00 0.00 41 1021.0
20260510120031 50 69 5.0 5.0 0.00 0.00 0.00 39 1021.0
20260510115529 50 64 4.0 5.0 0.00 0.00 0.00 40 1021.0
20260510115029 49 77 3.0 4.0 0.00 0.00 0.00 39 1021.0
20260510114531 49 69 4.0 5.0 0.00 0.00 0.00 39 1021.0
20260510114031 48 43 3.0 6.0 0.00 0.00 0.00 43 1021.0
20260510113529 47 93 4.0 4.0 0.00 0.00 0.00 46 1021.0
20260510113029 47 60 5.0 7.0 0.00 0.00 0.00 46 1021.0
20260510112529 47 70 5.0 6.0 0.00 0.00 0.00 47 1021.0
20260510112031 47 92 4.0 4.0 0.00 0.00 0.00 49 1021.0
20260510111531 47 65 5.0 5.0 0.00 0.00 0.00 48 1021.0
20260510111033 47 90 4.0 5.0 0.00 0.00 0.00 50 1021.0
20260510110529 48 81 5.0 6.0 0.00 0.00 0.00 49 1021.0
20260510110030 49 127 4.0 7.0 0.00 0.00 0.00 47 1021.0
20260510105529 50 88 8.0 9.0 0.00 0.00 0.00 44 1021.0
20260510105030 51 85 0.0 2.0 0.00 0.00 0.00 41 1021.0
20260510104530 52 99 5.0 7.0 0.00 0.00 0.00 39 1021.0
20260510104029 53 104 6.0 7.0 0.00 0.00 0.00 36 1021.0
20260510103529 53 113 5.0 8.0 0.00 0.00 0.00 34 1021.0
20260510103030 53 73 7.0 10.0 0.00 0.00 0.00 34 1021.0
20260510102529 52 76 6.0 7.0 0.00 0.00 0.00 39 1021.0
20260510102029 51 73 4.0 5.0 0.00 0.00 0.00 42 1021.0
20260510101530 51 73 5.0 6.0 0.00 0.00 0.00 42 1021.0
20260510101029 51 70 4.0 4.0 0.00 0.00 0.00 40 1021.0
20260510100529 51 70 5.0 6.0 0.00 0.00 0.00 39 1021.0
20260510100029 51 67 4.0 5.0 0.00 0.00 0.00 38 1021.0
20260510095530 50 73 3.0 4.0 0.00 0.00 0.00 38 1021.0
20260510095029 51 89 1.0 4.0 0.00 0.00 0.00 37 1021.0
20260510094532 50 47 2.0 4.0 0.00 0.00 0.00 37 1021.0
20260510094029 50 43 2.0 3.0 0.00 0.00 0.00 37 1021.0
20260510093529 50 88 4.0 4.0 0.00 0.00 0.00 38 1020.0
20260510093029 50 72 5.0 6.0 0.00 0.00 0.00 37 1020.0
20260510092529 50 101 5.0 8.0 0.00 0.00 0.00 39 1020.0
20260510092030 50 72 2.0 4.0 0.00 0.00 0.00 39 1020.0
20260510091530 51 0 0.0 0.0 0.00 0.00 0.00 38 1020.0
20260510091029 51 16 0.0 1.0 0.00 0.00 0.00 37 1020.0
20260510090530 52 66 3.0 4.0 0.00 0.00 0.00 37 1020.0
20260510090029 52 93 5.0 5.0 0.00 0.00 0.00 36 1020.0
20260510085529 53 103 5.0 6.0 0.00 0.00 0.00 35 1020.0
20260510085029 53 102 3.0 4.0 0.00 0.00 0.00 32 1020.0
20260510084529 54 33 3.0 4.0 0.00 0.00 0.00 31 1020.0
20260510084029 54 34 2.0 5.0 0.00 0.00 0.00 28 1020.0
20260510083529 53 91 4.0 5.0 0.00 0.00 0.00 29 1020.0
20260510083031 51 56 8.0 8.0 0.00 0.00 0.00 32 1020.0
20260510082529 50 55 5.0 7.0 0.00 0.00 0.00 37 1020.0
20260510082031 50 65 5.0 6.0 0.00 0.00 0.00 40 1020.0
20260510081530 50 89 4.0 4.0 0.00 0.00 0.00 39 1020.0
20260510081029 49 92 3.0 6.0 0.00 0.00 0.00 39 1020.0
20260510080530 50 50 3.0 3.0 0.00 0.00 0.00 40 1020.0
20260510080030 50 13 1.0 1.0 0.00 0.00 0.00 42 1020.0
20260510075529 50 0 0.0 0.0 0.00 0.00 0.00 42 1020.0
20260510075029 51 65 1.0 3.0 0.00 0.00 0.00 40 1020.0
20260510074529 52 20 0.0 0.0 0.00 0.00 0.00 40 1020.0
20260510074030 52 91 2.0 4.0 0.00 0.00 0.00 36 1020.0
20260510073529 52 104 4.0 5.0 0.00 0.00 0.00 37 1020.0
20260510073029 53 0 0.0 0.0 0.00 0.00 0.00 34 1020.0
20260510072529 53 68 1.0 3.0 0.00 0.00 0.00 33 1020.0
20260510072029 53 93 4.0 4.0 0.00 0.00 0.00 32 1020.0
20260510071530 53 88 4.0 8.0 0.00 0.00 0.00 34 1020.0
20260510071031 53 93 4.0 6.0 0.00 0.00 0.00 35 1020.0
20260510070530 52 104 4.0 5.0 0.00 0.00 0.00 35 1020.0
20260510070030 52 91 4.0 5.0 0.00 0.00 0.00 40 1020.0
20260510065530 52 101 5.0 6.0 0.00 0.00 0.00 35 1020.0
20260510065029 52 74 0.0 1.0 0.00 0.00 0.00 39 1020.0
20260510064529 52 99 0.0 0.0 0.00 0.00 0.00 35 1019.0
20260510064030 52 102 5.0 6.0 0.00 0.00 0.00 35 1019.0
20260510063530 52 48 2.0 2.0 0.00 0.00 0.00 36 1019.0
20260510063029 52 28 4.0 5.0 0.00 0.00 0.00 35 1019.0
20260510062529 53 92 5.0 5.0 0.00 0.00 0.00 36 1019.0
20260510062030 53 98 0.0 0.0 0.00 0.00 0.00 34 1019.0
20260510061529 53 67 3.0 3.0 0.00 0.00 0.00 34 1019.0
20260510061029 53 96 5.0 5.0 0.00 0.00 0.00 33 1019.0
20260510060530 53 92 6.0 6.0 0.00 0.00 0.00 33 1019.0
20260510060029 54 101 4.0 4.0 0.00 0.00 0.00 30 1019.0
20260510055529 54 75 0.0 2.0 0.00 0.00 0.00 32 1019.0
20260510055029 54 0 0.0 0.0 0.00 0.00 0.00 28 1019.0
20260510054529 55 71 2.0 3.0 0.00 0.00 0.00 29 1019.0
20260510054030 55 0 0.0 0.0 0.00 0.00 0.00 28 1019.0
20260510053529 55 30 0.0 1.0 0.00 0.00 0.00 28 1019.0
20260510053030 55 0 0.0 0.0 0.00 0.00 0.00 29 1019.0
20260510052529 56 44 0.0 0.0 0.00 0.00 0.00 30 1019.0
20260510052030 56 58 1.0 3.0 0.00 0.00 0.00 31 1019.0
20260510051529 57 0 0.0 0.0 0.00 0.00 0.00 24 1019.0
20260510051029 57 0 0.0 0.0 0.00 0.00 0.00 23 1019.0
20260510050529 57 28 2.0 4.0 0.00 0.00 0.00 23 1019.0
20260510050029 57 18 4.0 5.0 0.00 0.00 0.00 23 1018.0
20260510045529 57 24 1.0 2.0 0.00 0.00 0.00 23 1018.0
20260510045029 57 23 3.0 4.0 0.00 0.00 0.00 23 1018.0
20260510044529 57 0 0.0 0.0 0.00 0.00 0.00 22 1018.0
20260510044029 57 0 0.0 0.0 0.00 0.00 0.00 24 1018.0
20260510043529 57 98 3.0 3.0 0.00 0.00 0.00 23 1018.0
20260510043029 57 58 1.0 3.0 0.00 0.00 0.00 25 1018.0
20260510042529 57 0 0.0 0.0 0.00 0.00 0.00 29 1018.0
20260510042029 58 0 0.0 0.0 0.00 0.00 0.00 25 1018.0
20260510041530 58 0 0.0 0.0 0.00 0.00 0.00 22 1018.0
20260510041031 58 0 0.0 0.0 0.00 0.00 0.00 21 1018.0
20260510040529 59 0 0.0 0.0 0.00 0.00 0.00 23 1018.0
20260510040031 59 0 0.0 0.0 0.00 0.00 0.00 22 1018.0
20260510035529 59 0 0.0 0.0 0.00 0.00 0.00 21 1018.0
20260510035029 59 0 0.0 0.0 0.00 0.00 0.00 20 1018.0
20260510034530 60 2 2.0 4.0 0.00 0.00 0.00 22 1018.0
20260510034029 60 20 4.0 5.0 0.00 0.00 0.00 20 1018.0
20260510033530 60 30 3.0 4.0 0.00 0.00 0.00 20 1018.0
20260510033029 60 27 2.0 4.0 0.00 0.00 0.00 20 1018.0
20260510032530 60 44 3.0 4.0 0.00 0.00 0.00 19 1018.0
20260510032031 61 59 3.0 3.0 0.00 0.00 0.00 18 1017.0
20260510031532 62 52 3.0 3.0 0.00 0.00 0.00 20 1017.0
20260510031029 62 7 1.0 1.0 0.00 0.00 0.00 19 1017.0
20260510030531 63 47 0.0 2.0 0.00 0.00 0.00 18 1017.0
20260510030031 63 353 3.0 6.0 0.00 0.00 0.00 16 1017.0
20260510025529 64 331 2.0 5.0 0.00 0.00 0.00 16 1017.0
20260510025029 64 325 1.0 5.0 0.00 0.00 0.00 15 1017.0
20260510024529 64 350 1.0 4.0 0.00 0.00 0.00 16 1017.0
20260510024029 65 333 3.0 5.0 0.00 0.00 0.00 15 1017.0
20260510023529 65 336 5.0 9.0 0.00 0.00 0.00 14 1017.0
20260510023030 66 328 7.0 10.0 0.00 0.00 0.00 13 1017.0
20260510022529 67 332 8.0 11.0 0.00 0.00 0.00 14 1017.0
20260510022031 68 333 7.0 9.0 0.00 0.00 0.00 13 1017.0
20260510021529 69 339 8.0 11.0 0.00 0.00 0.00 13 1017.0
20260510021031 70 357 8.0 10.0 0.00 0.00 0.00 12 1017.0
20260510020530 70 349 6.0 9.0 0.00 0.00 0.00 11 1017.0
20260510020029 70 357 5.0 7.0 0.00 0.00 0.00 11 1017.0
20260510015531 71 340 4.0 9.0 0.00 0.00 0.00 11 1017.0
20260510015029 71 345 8.0 18.0 0.00 0.00 0.00 10 1017.0
20260510014530 71 345 5.0 8.0 0.00 0.00 0.00 11 1017.0
20260510014029 72 33 6.0 12.0 0.00 0.00 0.00 10 1017.0
20260510013529 72 357 9.0 13.0 0.00 0.00 0.00 10 1017.0
20260510013030 72 343 7.0 11.0 0.00 0.00 0.00 11 1017.0
20260510012529 72 345 6.0 10.0 0.00 0.00 0.00 12 1017.0
20260510012030 72 303 5.0 9.0 0.00 0.00 0.00 11 1017.0
20260510011529 72 319 4.0 8.0 0.00 0.00 0.00 10 1017.0
20260510011030 72 317 3.0 7.0 0.00 0.00 0.00 11 1017.0
20260510010529 72 332 8.0 13.0 0.00 0.00 0.00 10 1017.0
20260510010030 72 337 7.0 12.0 0.00 0.00 0.00 11 1017.0
20260510005529 72 351 9.0 18.0 0.00 0.00 0.00 11 1017.0
20260510005030 72 331 8.0 14.0 0.00 0.00 0.00 10 1017.0
20260510004529 72 325 9.0 16.0 0.00 0.00 0.00 11 1017.0
20260510004030 72 335 8.0 16.0 0.00 0.00 0.00 10 1017.0
20260510003529 72 332 9.0 17.0 0.00 0.00 0.00 12 1017.0
20260510003031 72 313 8.0 18.0 0.00 0.00 0.00 12 1017.0
20260510002529 72 14 6.0 14.0 0.00 0.00 0.00 12 1017.0
20260510002030 72 340 9.0 18.0 0.00 0.00 0.00 10 1017.0
20260510001530 72 316 9.0 13.0 0.00 0.00 0.00 11 1017.0
20260510001029 71 295 11.0 16.0 0.00 0.00 0.00 10 1017.0
20260510000529 72 293 13.0 22.0 0.00 0.00 0.00 11 1017.0
20260510000030 72 298 12.0 16.0 0.00 0.00 0.00 11 1017.0
20260509235529 71 297 11.0 21.0 0.00 0.00 0.00 10 1017.0
20260509235029 71 351 10.0 19.0 0.00 0.00 0.00 10 1017.0
20260509234530 71 316 9.0 14.0 0.00 0.00 0.00 9 1017.0
20260509234030 71 320 11.0 24.0 0.00 0.00 0.00 9 1017.0
20260509233530 71 298 13.0 20.0 0.00 0.00 0.00 8 1017.0
20260509233031 71 309 12.0 20.0 0.00 0.00 0.00 10 1017.0
20260509232531 71 329 12.0 17.0 0.00 0.00 0.00 11 1017.0
20260509232030 72 297 10.0 16.0 0.00 0.00 0.00 13 1017.0
20260509231531 72 319 7.0 12.0 0.00 0.00 0.00 13 1017.0
20260509231030 72 333 11.0 18.0 0.00 0.00 0.00 11 1017.0
20260509230530 72 304 8.0 12.0 0.00 0.00 0.00 14 1017.0
20260509230031 72 21 13.0 17.0 0.00 0.00 0.00 13 1017.0
20260509225529 71 323 9.0 20.0 0.00 0.00 0.00 13 1017.0
20260509225029 71 294 17.0 24.0 0.00 0.00 0.00 14 1017.0
20260509224529 71 297 10.0 18.0 0.00 0.00 0.00 14 1017.0
20260509224029 71 331 15.0 25.0 0.00 0.00 0.00 14 1017.0
20260509223530 71 323 8.0 15.0 0.00 0.00 0.00 15 1017.0
20260509223030 71 293 13.0 27.0 0.00 0.00 0.00 15 1017.0
20260509222530 71 338 12.0 17.0 0.00 0.00 0.00 15 1017.0
20260509222035 71 329 14.0 21.0 0.00 0.00 0.00 14 1017.0
20260509221530 72 318 11.0 23.0 0.00 0.00 0.00 15 1017.0
20260509221030 72 305 9.0 15.0 0.00 0.00 0.00 14 1017.0
20260509220530 72 326 11.0 17.0 0.00 0.00 0.00 16 1017.0
20260509220029 72 336 12.0 16.0 0.00 0.00 0.00 16 1017.0
20260509215529 71 319 8.0 12.0 0.00 0.00 0.00 17 1017.0
20260509215029 71 316 9.0 20.0 0.00 0.00 0.00 17 1017.0
20260509214530 71 296 13.0 20.0 0.00 0.00 0.00 18 1017.0
20260509214029 71 335 13.0 22.0 0.00 0.00 0.00 18 1017.0
20260509213530 71 301 7.0 17.0 0.00 0.00 0.00 17 1017.0
20260509213031 71 325 9.0 19.0 0.00 0.00 0.00 17 1017.0
20260509212529 71 297 9.0 16.0 0.00 0.00 0.00 17 1017.0
20260509212029 70 320 8.0 16.0 0.00 0.00 0.00 17 1017.0
20260509211529 70 327 13.0 23.0 0.00 0.00 0.00 17 1017.0
20260509211029 71 313 7.0 14.0 0.00 0.00 0.00 17 1017.0
20260509210529 71 318 10.0 18.0 0.00 0.00 0.00 17 1017.0
20260509205531 71 34 12.0 17.0 0.00 0.00 0.00 17 1017.0
20260509205031 71 324 9.0 17.0 0.00 0.00 0.00 19 1018.0
20260509204530 71 313 7.0 12.0 0.00 0.00 0.00 17 1018.0
20260509204031 70 294 11.0 17.0 0.00 0.00 0.00 18 1018.0
20260509203529 70 291 9.0 17.0 0.00 0.00 0.00 18 1018.0
20260509203029 70 314 13.0 20.0 0.00 0.00 0.00 17 1018.0
20260509202529 70 340 7.0 13.0 0.00 0.00 0.00 16 1018.0
20260509202029 70 328 9.0 17.0 0.00 0.00 0.00 17 1018.0
20260509201529 70 326 13.0 22.0 0.00 0.00 0.00 18 1018.0
20260509201031 70 307 13.0 25.0 0.00 0.00 0.00 17 1018.0
20260509200530 70 339 9.0 14.0 0.00 0.00 0.00 17 1018.0
20260509200031 70 308 9.0 17.0 0.00 0.00 0.00 17 1018.0
20260509195529 69 318 9.0 15.0 0.00 0.00 0.00 17 1018.0
20260509195029 69 319 13.0 23.0 0.00 0.00 0.00 17 1018.0
20260509194532 69 295 11.0 17.0 0.00 0.00 0.00 17 1018.0
20260509194030 69 326 12.0 25.0 0.00 0.00 0.00 17 1018.0
20260509193530 69 12 9.0 21.0 0.00 0.00 0.00 18 1018.0
20260509193030 69 307 8.0 19.0 0.00 0.00 0.00 18 1018.0
20260509192529 69 287 11.0 22.0 0.00 0.00 0.00 19 1018.0
20260509192029 68 324 9.0 14.0 0.00 0.00 0.00 19 1018.0
20260509191530 68 1 9.0 23.0 0.00 0.00 0.00 18 1018.0
20260509191029 69 325 8.0 14.0 0.00 0.00 0.00 15 1018.0
20260509190529 68 330 13.0 19.0 0.00 0.00 0.00 16 1018.0
20260509190029 68 323 10.0 15.0 0.00 0.00 0.00 16 1018.0
20260509185529 68 300 6.0 16.0 0.00 0.00 0.00 18 1018.0
20260509185029 68 302 13.0 19.0 0.00 0.00 0.00 18 1018.0
20260509184529 69 325 8.0 17.0 0.00 0.00 0.00 18 1018.0
20260509184029 69 345 9.0 20.0 0.00 0.00 0.00 19 1018.0
20260509183529 68 18 6.0 13.0 0.00 0.00 0.00 19 1018.0
20260509183029 67 310 11.0 20.0 0.00 0.00 0.00 19 1019.0
20260509182530 68 310 13.0 23.0 0.00 0.00 0.00 17 1019.0
20260509182030 67 318 12.0 17.0 0.00 0.00 0.00 18 1019.0
20260509181529 67 301 17.0 25.0 0.00 0.00 0.00 17 1019.0
20260509181031 66 304 8.0 15.0 0.00 0.00 0.00 16 1019.0
20260509180530 66 308 11.0 15.0 0.00 0.00 0.00 18 1019.0
20260509180032 67 315 12.0 17.0 0.00 0.00 0.00 17 1019.0
20260509175529 67 326 10.0 18.0 0.00 0.00 0.00 17 1019.0
20260509175030 67 15 4.0 9.0 0.00 0.00 0.00 18 1019.0
20260509174530 67 315 11.0 21.0 0.00 0.00 0.00 17 1019.0
20260509174029 67 34 11.0 16.0 0.00 0.00 0.00 15 1019.0
20260509173530 67 331 7.0 13.0 0.00 0.00 0.00 18 1019.0
20260509173030 66 316 9.0 17.0 0.00 0.00 0.00 16 1019.0
20260509172532 66 299 11.0 28.0 0.00 0.00 0.00 16 1018.0
20260509172031 66 310 13.0 20.0 0.00 0.00 0.00 16 1019.0
20260509171530 66 339 8.0 13.0 0.00 0.00 0.00 16 1019.0
20260509171031 66 320 9.0 13.0 0.00 0.00 0.00 17 1019.0
20260509170529 65 323 14.0 18.0 0.00 0.00 0.00 18 1019.0
20260509170029 66 309 9.0 17.0 0.00 0.00 0.00 17 1018.0
20260509165530 66 299 15.0 29.0 0.00 0.00 0.00 16 1018.0
20260509165032 66 318 7.0 12.0 0.00 0.00 0.00 19 1019.0
20260509164529 66 326 12.0 17.0 0.00 0.00 0.00 18 1019.0
20260509164029 66 304 12.0 25.0 0.00 0.00 0.00 19 1019.0
20260509163529 66 300 14.0 25.0 0.00 0.00 0.00 19 1019.0
20260509163031 66 308 13.0 30.0 0.00 0.00 0.00 19 1018.0
20260509162530 66 7 10.0 17.0 0.00 0.00 0.00 19 1019.0
20260509162030 65 338 8.0 17.0 0.00 0.00 0.00 21 1019.0
20260509161531 65 15 13.0 20.0 0.00 0.00 0.00 19 1019.0
20260509161032 65 301 13.0 19.0 0.00 0.00 0.00 20 1018.0
20260509160530 64 325 9.0 15.0 0.00 0.00 0.00 20 1018.0
20260509160031 65 305 13.0 28.0 0.00 0.00 0.00 21 1018.0
20260509155531 65 316 13.0 19.0 0.00 0.00 0.00 22 1018.0
20260509154624 64 302 9.0 15.0 0.00 0.00 0.00 24 1018.0
20260509154029 64 305 12.0 19.0 0.00 0.00 0.00 23 1018.0
20260509153530 64 328 11.0 18.0 0.00 0.00 0.00 23 1018.0
20260509153031 64 333 7.0 10.0 0.00 0.00 0.00 25 1018.0
20260509152531 63 296 11.0 17.0 0.00 0.00 0.00 25 1018.0
20260509152031 63 300 9.0 13.0 0.00 0.00 0.00 26 1018.0
20260509151530 63 309 9.0 12.0 0.00 0.00 0.00 27 1018.0
20260509151031 63 320 9.0 12.0 0.00 0.00 0.00 27 1018.0
20260509150531 62 274 8.0 12.0 0.00 0.00 0.00 27 1018.0
20260509150033 62 294 10.0 16.0 0.00 0.00 0.00 28 1018.0
20260509145529 62 316 8.0 10.0 0.00 0.00 0.00 28 1018.0
20260509145029 62 278 9.0 16.0 0.00 0.00 0.00 29 1018.0
20260509144531 62 289 9.0 15.0 0.00 0.00 0.00 28 1018.0
20260509144029 62 294 8.0 14.0 0.00 0.00 0.00 29 1018.0
20260509143530 62 306 6.0 10.0 0.00 0.00 0.00 29 1018.0
20260509143032 62 297 9.0 12.0 0.00 0.00 0.00 28 1018.0
20260509142531 61 289 7.0 12.0 0.00 0.00 0.00 28 1018.0
20260509142030 61 310 4.0 9.0 0.00 0.00 0.00 28 1018.0
20260509141530 61 322 12.0 17.0 0.00 0.00 0.00 27 1018.0
20260509140600 61 307 11.0 21.0 0.00 0.00 0.00 28 1018.0
20260509140031 60 305 9.0 13.0 0.00 0.00 0.00 28 1018.0
20260509135537 60 298 5.0 9.0 0.00 0.00 0.00 29 1018.0
20260509135029 60 309 6.0 11.0 0.00 0.00 0.00 29 1018.0
20260509134529 60 302 9.0 17.0 0.00 0.00 0.00 29 1018.0
20260509134030 60 345 7.0 16.0 0.00 0.00 0.00 30 1018.0
20260509133529 59 329 9.0 13.0 0.00 0.00 0.00 30 1018.0
20260509133029 59 337 5.0 9.0 0.00 0.00 0.00 30 1018.0
20260509132530 59 309 9.0 15.0 0.00 0.00 0.00 31 1018.0
20260509132029 59 313 8.0 15.0 0.00 0.00 0.00 31 1017.0
20260509131530 58 307 9.0 15.0 0.00 0.00 0.00 31 1017.0
20260509131030 58 316 10.0 16.0 0.00 0.00 0.00 31 1017.0
20260509130532 58 306 9.0 13.0 0.00 0.00 0.00 32 1017.0
20260509130031 58 311 12.0 19.0 0.00 0.00 0.00 32 1017.0
20260509125529 58 304 11.0 16.0 0.00 0.00 0.00 31 1017.0
20260509125029 58 314 7.0 9.0 0.00 0.00 0.00 32 1017.0
20260509124529 58 308 9.0 14.0 0.00 0.00 0.00 32 1017.0
20260509124029 58 314 10.0 20.0 0.00 0.00 0.00 31 1017.0
20260509123529 58 316 9.0 16.0 0.00 0.00 0.00 32 1017.0
20260509123030 58 312 9.0 13.0 0.00 0.00 0.00 33 1017.0
20260509122530 58 308 9.0 14.0 0.00 0.00 0.00 32 1017.0
20260509122030 58 317 9.0 13.0 0.00 0.00 0.00 32 1017.0
20260509121530 58 330 9.0 13.0 0.00 0.00 0.00 32 1017.0
20260509121031 58 312 11.0 18.0 0.00 0.00 0.00 31 1017.0